Flag for Germany Weather past 2 weeks in Lage, North Rhine-Westphalia, Germany

41 °F

Passing clouds.

Feels Like: 36 °F
Forecast: 33 / 42 °F
Wind: 8 mph from Northwest

Location: Bueckeburg

Current Time: Nov 26, 2015 at 2:26:38 AM

Latest Report: Nov 26, 2015 at 1:20 AM

Visibility: N/A

Pressure: 29.74 "Hg

Humidity: 93%

Dew point: 39 °F

Location of LageLocation

Historic Weather in Lage — Graph


Lage temperature yesterday

Maximum temperature yesterday: 43 °F (at 1:20 PM)
Minimum temperature yesterday: 36 °F (at 12:20 AM)
Average temperature yesterday: 40 °F

Past Weeks' High & Low Weather Summary

High59 °F (Nov 17, 9:48 PM)100% (Nov 16, 1:20 AM)30.27 "Hg (Nov 16, 1:20 AM)
Low32 °F (Nov 22, 1:20 AM)51% (Nov 13, 4:20 PM)29.33 "Hg (Nov 21, 5:20 AM)
Average48 °F84%29.83 "Hg
* Reported Nov 11 12:20 AM — Nov 26 12:20 AM, Lage, Weather by CustomWeather, © 2015

Note: Actual official high and low records may vary slightly from our data, if they occured in-between our weather recording intervals... More about our weather records


Lage weather history for previous 24 hours

Time TempWeatherWind HumidityBarometerVisibility
12:20 AM
Thu, Nov 26
41 °FPassing clouds.8 mph93%29.74 "HgN/A
11:20 PM
Wed, Nov 25
41 °FPassing clouds.8 mph93%29.71 "HgN/A
10:20 PM41 °FSprinkles. Passing clouds.7 mph93%29.71 "HgN/A
9:20 PM41 °FSprinkles. Passing clouds.9 mph93%29.68 "HgN/A
8:20 PM41 °FPassing clouds.8 mph93%29.68 "HgN/A
7:20 PM43 °FLight rain. Mostly cloudy.7 mph93%29.65 "HgN/A
6:20 PM43 °FMostly cloudy.6 mph93%29.65 "HgN/A
5:20 PM43 °FPartly cloudy.7 mph93%29.62 "HgN/A
5:04 PM43 °FPassing clouds.7 mph93%29.62 "Hg5 mi
4:52 PM43 °FPassing clouds.7 mph93%29.62 "Hg4 mi
4:20 PM43 °FPassing clouds.6 mph93%29.62 "Hg5 mi
3:20 PM43 °FBroken clouds.6 mph93%29.62 "Hg4 mi
2:47 PM43 °FBroken clouds.8 mph93%29.59 "Hg4 mi
2:20 PM43 °FPartly sunny.9 mph93%29.59 "Hg4 mi
1:20 PM43 °FPartly sunny.9 mph93%29.62 "Hg4 mi
12:20 PM41 °FLow clouds.7 mph93%29.62 "Hg4 mi
11:20 AM41 °FLow clouds.9 mph93%29.62 "Hg4 mi
10:54 AM41 °FLow clouds.10 mph93%29.62 "Hg4 mi
10:20 AM39 °FLow clouds.9 mph93%29.65 "Hg4 mi
9:20 AM39 °FLow clouds.9 mph93%29.65 "Hg5 mi
8:20 AM39 °FLow clouds.9 mph93%29.65 "Hg4 mi
7:20 AM39 °FDrizzle. Low clouds.10 mph93%29.62 "Hg4 mi
6:20 AM37 °FLow clouds.12 mph93%29.62 "Hg5 mi
5:20 AM37 °FLow clouds.10 mph93%29.65 "Hg5 mi
4:20 AM37 °FPassing clouds.9 mph93%29.65 "Hg5 mi
3:20 AM36 °FPassing clouds.13 mph93%29.65 "Hg5 mi
2:20 AM36 °FLight rain. Passing clouds.12 mph93%29.68 "Hg5 mi
Weather by CustomWeather, © 2015

See weather overviewHow to use our weather pages